SB KEPS @ AMSAT $ORB09127.O Orbital Elements 09127.OSCAR
HR AMSAT ORBITAL ELEMENTS FOR OSCAR SATELLITES FROM WA5QGD FORT WORTH,TX May 7, 2009 Send Subscribe/unsubscribe to KEPS at http://www.amsat.org/mailman/listinfo/keps BID: ORB09127.O TO ALL RADIO AMATEURS BT
Satellite: AO-07 Catalog number: 07530 Epoch time: 09127.38749830 Element set: 471 Inclination: 101.4300 deg RA of node: 153.5596 deg Eccentricity: 0.0011780 Arg of perigee: 350.5700 deg Mean anomaly: 009.5150 deg Mean motion: 12.53575649 rev/day Decay rate: -2.7e-07 rev/day^2 Epoch rev: 57760 Checksum: 288
Satellite: FO-29 Catalog number: 24278 Epoch time: 09126.81230492 Element set: 0041 Inclination: 098.5601 deg RA of node: 006.4009 deg Eccentricity: 0.0351408 Arg of perigee: 097.5823 deg Mean anomaly: 266.5363 deg Mean motion: 13.52942732 rev/day Decay rate: -8.9e-07 rev/day^2 Epoch rev: 62815 Checksum: 309
Satellite: SO-33 Catalog number: 25509 Epoch time: 09127.79496219 Element set: 448 Inclination: 031.4346 deg RA of node: 280.8900 deg Eccentricity: 0.0354681 Arg of perigee: 345.2337 deg Mean anomaly: 013.8120 deg Mean motion: 14.28249954 rev/day Decay rate: 2.2e-07 rev/day^2 Epoch rev: 55005 Checksum: 304
Satellite: RS-22 Catalog number: 27939 Epoch time: 09126.82935337 Element set: 783 Inclination: 097.9511 deg RA of node: 003.1921 deg Eccentricity: 0.0012434 Arg of perigee: 263.2923 deg Mean anomaly: 096.6894 deg Mean motion: 14.63312512 rev/day Decay rate: -1.0e-07 rev/day^2 Epoch rev: 29952 Checksum: 309
Satellite: VO-52 Catalog number: 28650 Epoch time: 09126.71708446 Element set: 0220 Inclination: 097.7456 deg RA of node: 189.6637 deg Eccentricity: 0.0027582 Arg of perigee: 162.5612 deg Mean anomaly: 197.6558 deg Mean motion: 14.81577692 rev/day Decay rate: -2.50e-06 rev/day^2 Epoch rev: 21650 Checksum: 335
/EX SB KEPS @ AMSAT $ORB09127.D Orbital Elements 09127.MICROS
HR AMSAT ORBITAL ELEMENTS FOR THE MICROSATS FROM WA5QGD FORT WORTH,TX May 7, 2009 Send Subscribe/unsubscribe to KEPS at http://www.amsat.org/mailman/listinfo/keps BID: ORB09127.D TO ALL RADIO AMATEURS BT
Satellite: AO-16 Catalog number: 20439 Epoch time: 09126.83430782 Element set: 598 Inclination: 098.2758 deg RA of node: 097.1255 deg Eccentricity: 0.0010127 Arg of perigee: 297.5630 deg Mean anomaly: 062.4538 deg Mean motion: 14.31822964 rev/day Decay rate: 6.0e-08 rev/day^2 Epoch rev: 723 Checksum: 309
Satellite: LO-19 Catalog number: 20442 Epoch time: 09126.47884002 Element set: 0518 Inclination: 098.2375 deg RA of node: 104.2101 deg Eccentricity: 0.0010860 Arg of perigee: 293.1419 deg Mean anomaly: 066.8626 deg Mean motion: 14.32058542 rev/day Decay rate: -5.4e-07 rev/day^2 Epoch rev: 00734 Checksum: 277
Satellite: AO-27 Catalog number: 22825 Epoch time: 09127.61211878 Element set: 238 Inclination: 098.4328 deg RA of node: 082.3196 deg Eccentricity: 0.0008791 Arg of perigee: 030.9293 deg Mean anomaly: 329.2418 deg Mean motion: 14.29264958 rev/day Decay rate: 5.6e-07 rev/day^2 Epoch rev: 81411 Checksum: 324
Satellite: IO-26 Catalog number: 22826 Epoch time: 09126.62954793 Element set: 962 Inclination: 098.4264 deg RA of node: 082.1346 deg Eccentricity: 0.0009409 Arg of perigee: 028.5576 deg Mean anomaly: 331.6114 deg Mean motion: 14.29516219 rev/day Decay rate: 7.0e-08 rev/day^2 Epoch rev: 81407 Checksum: 318
Satellite: GO-32 Catalog number: 25397 Epoch time: 09126.59184599 Element set: 0888 Inclination: 098.3289 deg RA of node: 151.1561 deg Eccentricity: 0.0001677 Arg of perigee: 053.4029 deg Mean anomaly: 306.7309 deg Mean motion: 14.23158420 rev/day Decay rate: 5.8e-07 rev/day^2 Epoch rev: 56221 Checksum: 324
Satellite: NO-44 Catalog number: 26931 Epoch time: 09127.56618435 Element set: 162 Inclination: 067.0514 deg RA of node: 168.9946 deg Eccentricity: 0.0005362 Arg of perigee: 268.7775 deg Mean anomaly: 091.2713 deg Mean motion: 14.29554385 rev/day Decay rate: -1.02e-06 rev/day^2 Epoch rev: 39677 Checksum: 334
Satellite: SO-50 Catalog number: 27607 Epoch time: 09127.61323234 Element set: 879 Inclination: 064.5570 deg RA of node: 148.3185 deg Eccentricity: 0.0072105 Arg of perigee: 214.4916 deg Mean anomaly: 145.1506 deg Mean motion: 14.71433169 rev/day Decay rate: -2.0e-08 rev/day^2 Epoch rev: 34270 Checksum: 285
Satellite: CO-55 Catalog number: 27844 Epoch time: 09127.49457375 Element set: 573 Inclination: 098.7146 deg RA of node: 137.2367 deg Eccentricity: 0.0008791 Arg of perigee: 260.4428 deg Mean anomaly: 099.5773 deg Mean motion: 14.20635285 rev/day Decay rate: 3.6e-07 rev/day^2 Epoch rev: 30348 Checksum: 342
Satellite: CO-57 Catalog number: 27848 Epoch time: 09126.55070982 Element set: 0520 Inclination: 098.7157 deg RA of node: 135.3660 deg Eccentricity: 0.0008913 Arg of perigee: 270.1663 deg Mean anomaly: 089.8507 deg Mean motion: 14.20437785 rev/day Decay rate: 3.7e-07 rev/day^2 Epoch rev: 30331 Checksum: 318
Satellite: AO-51 Catalog number: 28375 Epoch time: 09127.54196770 Element set: 382 Inclination: 098.0541 deg RA of node: 139.5152 deg Eccentricity: 0.0082923 Arg of perigee: 248.8730 deg Mean anomaly: 110.3584 deg Mean motion: 14.40640558 rev/day Decay rate: 5.0e-08 rev/day^2 Epoch rev: 25510 Checksum: 300
Satellite: CO-56 Catalog number: 28941 Epoch time: 09127.48727532 Element set: 56 Inclination: 098.1344 deg RA of node: 294.4461 deg Eccentricity: 0.0095721 Arg of perigee: 284.8835 deg Mean anomaly: 074.1864 deg Mean motion: 15.79901969 rev/day Decay rate: 3.4446e-04 rev/day^2 Epoch rev: 18081 Checksum: 357
Satellite: GENESAT1 Catalog number: 29655 Epoch time: 09126.96834257 Element set: 0702 Inclination: 040.0244 deg RA of node: 081.4304 deg Eccentricity: 0.0001504 Arg of perigee: 244.8582 deg Mean anomaly: 115.2144 deg Mean motion: 15.64717605 rev/day Decay rate: 9.891e-05 rev/day^2 Epoch rev: 13601 Checksum: 282
Satellite: CP3 Catalog number: 31129 Epoch time: 09127.79410475 Element set: 905 Inclination: 097.9931 deg RA of node: 182.7995 deg Eccentricity: 0.0103668 Arg of perigee: 050.8505 deg Mean anomaly: 310.1838 deg Mean motion: 14.52126845 rev/day Decay rate: 1.9e-07 rev/day^2 Epoch rev: 10902 Checksum: 309
Satellite: CO-65 Catalog number: 32785 Epoch time: 09127.66797517 Element set: 358 Inclination: 097.9469 deg RA of node: 191.9624 deg Eccentricity: 0.0015281 Arg of perigee: 158.6808 deg Mean anomaly: 201.5043 deg Mean motion: 14.81475444 rev/day Decay rate: 9.0e-08 rev/day^2 Epoch rev: 5544 Checksum: 344
Satellite: KKS-1 Catalog number: 33493 Epoch time: 09127.75518221 Element set: 359 Inclination: 098.0529 deg RA of node: 239.7965 deg Eccentricity: 0.0020483 Arg of perigee: 016.5004 deg Mean anomaly: 343.6878 deg Mean motion: 14.80659333 rev/day Decay rate: 2.42e-06 rev/day^2 Epoch rev: 1548 Checksum: 314
Satellite: SOHLA-1 Catalog number: 33496 Epoch time: 09127.73438770 Element set: 322 Inclination: 098.0342 deg RA of node: 237.6815 deg Eccentricity: 0.0007818 Arg of perigee: 057.0356 deg Mean anomaly: 303.1608 deg Mean motion: 14.69431829 rev/day Decay rate: 8.0e-08 rev/day^2 Epoch rev: 1533 Checksum: 299
/EX SB KEPS @ AMSAT $ORB09127.W Orbital Elements 09127.WEATHER
HR AMSAT ORBITAL ELEMENTS FOR WEATHER SATELLITES FROM WA5QGD FORT WORTH,TX May 7, 2009 Send Subscribe/unsubscribe to KEPS at http://www.amsat.org/mailman/listinfo/keps BID: ORB09127.W TO ALL RADIO AMATEURS BT
Satellite: NOAA-10 Catalog number: 16969 Epoch time: 09126.58910385 Element set: 0603 Inclination: 098.6941 deg RA of node: 153.4582 deg Eccentricity: 0.0011815 Arg of perigee: 322.1948 deg Mean anomaly: 037.8385 deg Mean motion: 14.27385432 rev/day Decay rate: -1.9e-07 rev/day^2 Epoch rev: 17757 Checksum: 330
Satellite: NOAA-11 Catalog number: 19531 Epoch time: 09126.76767840 Element set: 0612 Inclination: 098.7829 deg RA of node: 217.3599 deg Eccentricity: 0.0011086 Arg of perigee: 223.3105 deg Mean anomaly: 136.7202 deg Mean motion: 14.14893759 rev/day Decay rate: -2.78e-06 rev/day^2 Epoch rev: 06366 Checksum: 325
Satellite: NOAA-12 Catalog number: 21263 Epoch time: 09127.82023306 Element set: 108 Inclination: 098.7715 deg RA of node: 135.8631 deg Eccentricity: 0.0011369 Arg of perigee: 262.8412 deg Mean anomaly: 097.1956 deg Mean motion: 14.25577310 rev/day Decay rate: 8.2e-07 rev/day^2 Epoch rev: 93468 Checksum: 301
Satellite: MET-3/5 Catalog number: 21655 Epoch time: 09126.97395975 Element set: 0596 Inclination: 082.5485 deg RA of node: 235.6006 deg Eccentricity: 0.0012582 Arg of perigee: 287.4341 deg Mean anomaly: 072.5405 deg Mean motion: 13.17018674 rev/day Decay rate: 5.1e-07 rev/day^2 Epoch rev: 85220 Checksum: 315
Satellite: MET-2/21 Catalog number: 22782 Epoch time: 09126.74328370 Element set: 0451 Inclination: 082.5495 deg RA of node: 214.8765 deg Eccentricity: 0.0024052 Arg of perigee: 102.3790 deg Mean anomaly: 258.0069 deg Mean motion: 13.83636589 rev/day Decay rate: -3.6e-07 rev/day^2 Epoch rev: 79187 Checksum: 324
Satellite: OKEAN-4 Catalog number: 23317 Epoch time: 09126.86560058 Element set: 900 Inclination: 082.5420 deg RA of node: 013.0510 deg Eccentricity: 0.0023150 Arg of perigee: 137.3503 deg Mean anomaly: 222.9502 deg Mean motion: 14.82693014 rev/day Decay rate: 1.40e-06 rev/day^2 Epoch rev: 78624 Checksum: 251
Satellite: NOAA-14 Catalog number: 23455 Epoch time: 09127.75951992 Element set: 608 Inclination: 098.9102 deg RA of node: 205.5755 deg Eccentricity: 0.0008685 Arg of perigee: 309.1524 deg Mean anomaly: 050.9358 deg Mean motion: 14.13761981 rev/day Decay rate: -1.5e-07 rev/day^2 Epoch rev: 74030 Checksum: 316
Satellite: NOAA-15 Catalog number: 25338 Epoch time: 09126.82967476 Element set: 0916 Inclination: 098.5825 deg RA of node: 116.9488 deg Eccentricity: 0.0010907 Arg of perigee: 172.6547 deg Mean anomaly: 187.4750 deg Mean motion: 14.24756762 rev/day Decay rate: -4.8e-07 rev/day^2 Epoch rev: 57088 Checksum: 361
